This is the latest recevied weather packets stored in our database for station/object WA7CUG. If no packets are shown the sender has not sent any weather packets the latest 10 day(s).
| Time | Temp. | Humidity | Pressure | Rain* | Wind** | Luminosity | Snow |
|---|---|---|---|---|---|---|---|
| 1778119678 | 24.44° C | 31% | 1010.4 hPa | 0 mm | - | 28 W/m² | - |
| 1778119374 | 24.44° C | 31% | 1010.5 hPa | 0 mm | - | 33 W/m² | - |
| 1778119071 | 25° C | 30% | 1010.5 hPa | 0 mm | - | 32 W/m² | - |
| 1778118769 | 25° C | 29% | 1010.4 hPa | 0 mm | - | 35 W/m² | - |
| 1778118465 | 25° C | 28% | 1010.3 hPa | 0 mm | - | 33 W/m² | - |
| 1778118162 | 25° C | 29% | 1010.2 hPa | 0 mm | - | 32 W/m² | - |
| 1778117858 | 25° C | 28% | 1010.2 hPa | 0 mm | - | 35 W/m² | - |
| 1778117556 | 25.56° C | 28% | 1010.3 hPa | 0 mm | - | 39 W/m² | - |
| 1778117253 | 25.56° C | 28% | 1010 hPa | 0 mm | - | 39 W/m² | - |
| 1778116948 | 25° C | 30% | 1010.2 hPa | 0 mm | - | 42 W/m² | - |
| 1778116646 | 25.56° C | 30% | 1010.3 hPa | 0 mm | - | 46 W/m² | - |
| 1778116343 | 25.56° C | 29% | 1010.1 hPa | 0 mm | - | 49 W/m² | - |
| 1778116042 | 25.56° C | 29% | 1010.2 hPa | 0 mm | - | 52 W/m² | - |
| 1778115738 | 25.56° C | 28% | 1010.3 hPa | 0 mm | - | 56 W/m² | - |
| 1778115436 | 25.56° C | 29% | 1010.2 hPa | 0 mm | - | 61 W/m² | - |
| 1778115132 | 26.11° C | 29% | 1009.9 hPa | 0 mm | - | 63 W/m² | - |
| 1778114829 | 26.11° C | 29% | 1010.1 hPa | 0 mm | - | 65 W/m² | - |
| 1778114527 | 26.11° C | 29% | 1010.2 hPa | 0 mm | - | 68 W/m² | - |
| 1778114223 | 26.11° C | 30% | 1010 hPa | 0 mm | - | 73 W/m² | - |
| 1778113918 | 26.11° C | 29% | 1009.9 hPa | 0 mm | - | 81 W/m² | - |
| 1778113614 | 26.11° C | 29% | 1009.8 hPa | 0 mm | - | 87 W/m² | - |
| 1778113310 | 26.11° C | 30% | 1009.8 hPa | 0 mm | - | 91 W/m² | - |
| 1778113007 | 26.11° C | 29% | 1009.8 hPa | 0 mm | - | 88 W/m² | - |
| 1778112705 | 26.67° C | 30% | 1009.8 hPa | 0 mm | - | 92 W/m² | - |
| 1778112401 | 26.67° C | 29% | 1009.9 hPa | 0 mm | - | 93 W/m² | - |
* Rain latest hour (hover to see other rain measurements)
** Current wind speed in m/s (hover to see current wind gust speed)